This demonstration page uses our WeatherBlox Daily Observations layout. Learn more.

Left ArrowRight Arrow

34.16533, -84.80231

Hourly Observations for August 11, 2017

Temp ( °F °C ) Dew Point ( °F °C ) Humidity (%) Winds ( mph kmh ) Pressure ( in mb ) Visibility ( mi km ) Precip ( " mm )
12:48 am 00:48 Mostly Cloudy 73 23 73 23 100 100 Calm 30.12 1020 10 16 0.00 0.00
12:53 am 00:53 Mostly Cloudy 73 22.8 73 22.8 100 100 Calm 30.11 1020 10 16 0.00 0.00
1:38 am 01:38 Mostly Cloudy 72 22.2 72 22.2 100 100 Calm 30.09 1019 9 14 0.00 0.00
1:53 am 01:53 Mostly Cloudy 72 22.2 72 22.2 100 100 Calm 30.09 1019 10 16 0.00 0.00
2:11 am 02:11 Partly Cloudy 72 22.2 72 22.2 100 100 Calm 30.09 1019 10 16 0.00 0.00
2:53 am 02:53 Mostly Cloudy 72 22.2 72 22.2 100 100 Calm 30.07 1018 10 16 0.00 0.00
3:53 am 03:53 Cloudy 72 22.2 72 22.2 100 100 SE 3 6 30.07 1018 10 16 0.00 0.00
4:00 am 04:00 Cloudy 71 21.7 71 21.7 100 100 SE 3 6 30.09 1019 10 16 0.00 0.00
4:53 am 04:53 Mostly Cloudy 72 22.2 72 22.2 100 100 Calm 30.06 1018 10 16 0.00 0.00
5:28 am 05:28 Partly Cloudy 72 22.2 72 22.2 100 100 Calm 30.06 1018 10 16 0.00 0.00
5:53 am 05:53 Partly Cloudy 72 22.2 72 22.2 100 100 Calm 30.05 1018 10 16 0.00 0.00
6:03 am 06:03 Mostly Cloudy 72 22.2 72 22.2 100 100 Calm 30.06 1018 10 16 0.00 0.00
6:13 am 06:13 Partly Cloudy 72 22.2 72 22.2 100 100 Calm 30.06 1018 10 16 0.00 0.00
6:25 am 06:25 Mostly Cloudy 72 22.2 72 22.2 100 100 Calm 30.06 1018 10 16 0.00 0.00
6:33 am 06:33 Mostly Cloudy 72 22.2 72 22.2 100 100 Calm 30.06 1018 10 16 0.00 0.00
6:53 am 06:53 Cloudy 72 22.2 72 22.2 100 100 Calm 30.06 1018 10 16 0.00 0.00
7:53 am 07:53 Cloudy 72 22.2 72 22.2 100 100 Calm 30.09 1019 10 16 0.00 0.00
8:00 am 08:00 Cloudy 72 22.2 72 22.2 100 100 Calm 30.09 1019 10 16 0.00 0.00
8:10 am 08:10 Cloudy 73 22.8 73 22.8 100 100 Calm 30.09 1019 10 16 0.00 0.00
8:19 am 08:19 Cloudy 73 22.8 73 22.8 100 100 Calm 30.09 1019 10 16 0.00 0.00
8:53 am 08:53 Cloudy 74 23.3 73 22.8 97 97 Calm 30.08 1019 10 16 0.00 0.00
9:14 am 09:14 Cloudy 75 23.9 74 23.3 96 96 Calm 30.09 1019 10 16 0.00 0.00
9:53 am 09:53 Cloudy 75 23.9 73 22.8 94 94 Calm 30.09 1019 10 16 0.00 0.00
10:39 am 10:39 Cloudy 76 24.4 73 22.8 91 91 Calm 30.09 1019 10 16 0.00 0.00
10:53 am 10:53 Cloudy 77 25 72 22.2 85 85 Calm 30.09 1019 10 16 0.00 0.00
11:53 am 11:53 Cloudy 78 25.6 73 22.8 85 85 S 5 7 30.09 1019 10 16 0.00 0.00
12:53 pm 12:53 Cloudy 79 26.1 73 22.8 82 82 Calm 30.07 1018 10 16 0.00 0.00
1:53 pm 13:53 Cloudy 81 27.2 74 23.3 79 79 Calm 30.05 1018 10 16 0.00 0.00
2:53 pm 14:53 Cloudy 83 28.3 74 23.3 74 74 VRB 3 6 30.02 1017 10 16 0.00 0.00
3:53 pm 15:53 Cloudy 82 27.8 74 23.3 77 77 VRB 3 6 29.99 1016 10 16 0.00 0.00
4:53 pm 16:53 Cloudy 82 27.8 73 22.8 74 74 Calm 29.98 1015 10 16 0.00 0.00
5:53 pm 17:53 Cloudy 82 27.8 74 23.3 77 77 Calm 29.97 1015 10 16 0.00 0.00
6:53 pm 18:53 Cloudy 82 27.8 75 23.9 79 79 Calm 29.96 1015 10 16 0.00 0.00
7:53 pm 19:53 Cloudy 80 26.7 76 24.4 87 87 Calm 29.96 1015 10 16 0.00 0.00
8:53 pm 20:53 Cloudy 78 25.6 76 24.4 93 93 Calm 29.97 1015 10 16 0.00 0.00
9:53 pm 21:53 Clear 75 23.9 75 23.9 100 100 Calm 29.98 1015 10 16 0.00 0.00
10:53 pm 22:53 Clear 74 23.3 74 23.3 100 100 Calm 29.98 1015 10 16 0.00 0.00
11:53 pm 23:53 Clear 74 23.3 74 23.3 100 100 Calm 29.96 1014 10 16 0.00 0.00

Powered by AerisWeather